Location: Yellowknife
(62.4500°N, 114.3500°W)
Time: 06:24:38
(UTC-06:00)

Amateur Radio Satellites - All Passes

Search period start: 04 September 2015 05:54
Search period end: 05 September 2015 05:54
Location: Yellowknife, 62.4500°N, 114.3500°W

Satellite Date Start Highest point End Downlink Frequencies (MHz)
Time Altitude Azimuth
PRISM 04 Sep 05:56:15 05:59:26 23° 49° (NE) 06:02:41 437.425
JAS-2 04 Sep 06:03:27 06:10:47 65° 299° (WNW) 06:17:15 435.910
AUBIESAT-1 04 Sep 06:07:31 06:08:14 10° 2° (N) 06:08:57 437.475
Cosmos 2504 04 Sep 06:08:32 06:14:31 20° 4° (N) 06:20:27 435.465 / 435.565
M-CUBED/EXP-1 PRIME 04 Sep 06:15:58 06:17:05 11° 5° (N) 06:18:13 437.505
CUTE-I 04 Sep 06:18:58 06:21:25 13° 76° (ENE) 06:24:04 437.470
O/OREOS (USA 219) 04 Sep 06:19:55 06:21:41 12° 262° (W) 06:23:17 437.305
SO-50 04 Sep 06:35:16 06:40:16 74° 12° (NNE) 06:45:16 436.795
CUSAT 1 04 Sep 06:38:14 06:42:40 18° 11° (N) 06:47:39 437.405
MOZHAYETS 4 04 Sep 06:42:05 06:45:03 16° 278° (W) 06:47:54
PCSat 04 Sep 06:42:41 06:48:02 53° 359° (N) 06:53:24 145.827
ITAMSAT 1 04 Sep 06:46:23 06:50:43 27° 315° (NW) 06:55:01 435.822/435.867
YUBILEINY 04 Sep 06:47:48 06:56:07 42° 50° (NE) 07:04:26 435.215
STRAND 1 04 Sep 06:48:37 06:53:39 64° 64° (ENE) 06:58:44 437.568
Gurwin Techsat 1B 04 Sep 06:50:27 06:54:41 24° 318° (NW) 06:58:52 435.225
HORYU 2 04 Sep 06:52:27 06:56:53 59° 296° (WNW) 07:01:17 437.375
CUBESAT XI-V 04 Sep 07:06:47 07:11:15 47° 261° (W) 07:15:44 437.345
Cubesat XI-IV 04 Sep 07:14:05 07:18:38 28° 90° (E) 07:23:13 437.490
Oscar 19 04 Sep 07:19:13 07:21:35 13° 337° (NNW) 07:23:53 437.125/150
BRITE-PL 04 Sep 07:20:25 07:22:51 13° 74° (ENE) 07:25:32 437.365/2234.400
PRISM 04 Sep 07:30:20 07:34:26 89° 74° (ENE) 07:38:35 437.425
GOMX 1 04 Sep 07:31:13 07:32:07 10° 70° (ENE) 07:33:16 467.674
GONETS M04 04 Sep 07:34:27 07:41:34 26° 333° (NNW) 07:48:38
DANDE 04 Sep 07:34:45 07:39:12 19° 21° (NNE) 07:44:21 436.750
AUBIESAT-1 04 Sep 07:39:03 07:41:27 15° 24° (NNE) 07:43:51 437.475
AO-7 04 Sep 07:40:21 07:48:33 65° 308° (NW) 07:56:42 29.400- 29.500
Cosmos 2499 04 Sep 07:40:28 07:48:43 41° 312° (NW) 07:56:57 435.465 / 435.565
M-CUBED/EXP-1 PRIME 04 Sep 07:47:36 07:50:27 17° 28° (NNE) 07:53:14 437.505
JAS-2 04 Sep 07:48:34 07:54:47 30° 324° (NW) 08:00:26 435.910
Cosmos 2491 04 Sep 07:53:59 08:00:27 25° 70° (ENE) 08:07:08 435.465 / 435.565
UNISAT 6 04 Sep 07:54:04 07:55:56 12° 31° (NNE) 07:57:53 437.425
CUTE-I 04 Sep 07:57:43 08:02:55 49° 100° (E) 08:08:06 437.470
Cosmos 2504 04 Sep 08:02:56 08:10:09 29° 35° (NE) 08:17:15 435.465 / 435.565
AIST 1 04 Sep 08:06:58 08:10:37 28° 89° (E) 08:14:19
SO-50 04 Sep 08:15:56 08:20:53 63° 215° (SW) 08:25:46 436.795
TIGRISAT 04 Sep 08:19:53 08:22:33 15° 37° (NE) 08:25:16 435.000
CUSAT 1 04 Sep 08:21:46 08:27:44 28° 37° (NE) 08:34:30 437.405
ITAMSAT 1 04 Sep 08:26:28 08:28:48 13° 338° (NNW) 08:31:05 435.822/435.867
PCSat 04 Sep 08:26:37 08:32:04 69° 23° (NNE) 08:37:32 145.827
STRAND 1 04 Sep 08:28:33 08:33:14 35° 266° (W) 08:37:55 437.568
HORYU 2 04 Sep 08:29:40 08:32:48 19° 318° (NW) 08:35:52 437.375
Gurwin Techsat 1B 04 Sep 08:30:57 08:33:07 12° 341° (NNW) 08:35:12 435.225
CANX-2 04 Sep 08:32:09 08:32:35 10° 76° (ENE) 08:33:12 2200.000
NANOSAT C BR1 04 Sep 08:36:14 08:37:00 10° 31° (NNE) 08:37:51 145.865
ANTELSAT 04 Sep 08:37:53 08:41:04 18° 42° (NE) 08:44:17 437.575/2403.000
QB50P2 04 Sep 08:37:58 08:39:04 11° 32° (NNE) 08:40:16 145.880/145.840
HO-68 04 Sep 08:45:02 08:50:13 21° 80° (E) 08:55:34 435.675
YUBILEINY 04 Sep 08:45:04 08:53:59 85° 258° (WSW) 09:02:50 435.215
SEEDS 04 Sep 08:46:37 08:47:04 10° 76° (ENE) 08:47:42 437.485
CUBESAT XI-V 04 Sep 08:48:17 08:49:56 11° 284° (WNW) 08:51:25 437.345
QB50P1 04 Sep 08:50:28 08:52:08 12° 34° (NE) 08:53:53 145.935-145.965
Cubesat XI-IV 04 Sep 08:54:01 08:59:22 83° 293° (WNW) 09:04:44 437.490
BRITE-PL 04 Sep 08:57:32 09:02:46 46° 96° (E) 09:08:13 437.365/2234.400
COMPASS 1 04 Sep 09:01:23 09:02:33 11° 78° (ENE) 09:03:53 437.405
DOVE 4 04 Sep 09:01:43 09:06:07 26° 86° (E) 09:10:35 437.250
GOMX 1 04 Sep 09:06:50 09:11:52 38° 93° (E) 09:17:01 467.674
PRISM 04 Sep 09:07:26 09:10:28 19° 272° (W) 09:13:26 437.425
AAUSAT CUBESAT 2 04 Sep 09:08:08 09:09:16 11° 78° (ENE) 09:10:33 437.432
AUBIESAT-1 04 Sep 09:11:09 09:15:12 32° 45° (NE) 09:19:05 437.475
DANDE 04 Sep 09:18:18 09:24:28 34° 46° (NE) 09:31:47 436.750
CINEMA 3 04 Sep 09:19:16 09:22:48 19° 82° (E) 09:26:23 145.822/145.860
M-CUBED/EXP-1 PRIME 04 Sep 09:20:02 09:24:21 39° 49° (NE) 09:28:29 437.505
UNISAT 6 04 Sep 09:27:23 09:31:30 31° 53° (NE) 09:35:39 437.425
JAS-2 04 Sep 09:32:52 09:37:50 19° 350° (N) 09:42:29 435.910
AO-7 04 Sep 09:33:02 09:40:18 35° 334° (NNW) 09:47:29 29.400- 29.500
GONETS M04 04 Sep 09:35:53 09:42:10 21° 5° (N) 09:48:31
CUTE-I 04 Sep 09:37:57 09:43:06 49° 302° (WNW) 09:48:13 437.470
Cosmos 2499 04 Sep 09:37:58 09:44:47 23° 341° (NNW) 09:51:28 435.465 / 435.565
BUGSAT 1 04 Sep 09:40:43 09:43:12 16° 42° (NE) 09:45:48 437.445
AIST 1 04 Sep 09:43:49 09:48:02 59° 291° (WNW) 09:52:18
Cosmos 2491 04 Sep 09:47:19 09:55:54 67° 96° (E) 10:04:33 435.465 / 435.565
DUCHIFAT 1 04 Sep 09:49:30 09:52:46 22° 48° (NE) 09:56:06 145.980
CUTE 1.7 + AOD 2 04 Sep 09:50:59 09:54:53 33° 94° (E) 09:58:45 437.475
POLYITAN 1 04 Sep 09:51:31 09:54:56 23° 49° (NE) 09:58:23 437.675
POPSAT HIP 1 04 Sep 09:52:31 09:55:54 23° 49° (NE) 09:59:21 437.405
TIGRISAT 04 Sep 09:53:53 09:58:19 42° 58° (ENE) 10:02:45 435.000
Cosmos 2504 04 Sep 09:55:51 10:04:23 60° 63° (ENE) 10:12:33 435.465 / 435.565
SO-50 04 Sep 09:56:51 10:00:47 23° 236° (WSW) 10:04:34 436.795
ZACube-1 04 Sep 10:03:43 10:06:02 14° 79° (E) 10:08:28 437.345
CUSAT 1 04 Sep 10:04:32 10:11:47 58° 60° (ENE) 10:19:56 437.405
CANX-2 04 Sep 10:05:35 10:09:41 45° 99° (E) 10:13:46 2200.000
ITAMSAT 1 04 Sep 10:06:02 10:06:19 10° 3° (N) 10:06:38 435.822/435.867
FUNcube-1 04 Sep 10:07:11 10:09:37 14° 79° (E) 10:12:08 145.935
NANOSAT C BR1 04 Sep 10:08:01 10:11:38 28° 53° (NE) 10:15:19 145.865
Gurwin Techsat 1B 04 Sep 10:10:00 10:11:02 11° 6° (N) 10:12:05 435.225
QB50P2 04 Sep 10:10:06 10:13:48 29° 54° (NE) 10:17:34 145.880/145.840
PCSat 04 Sep 10:10:12 10:15:31 55° 227° (SW) 10:20:49 145.827
ANTELSAT 04 Sep 10:12:27 10:17:03 55° 63° (ENE) 10:21:40 437.575/2403.000
UWE-3 04 Sep 10:18:51 10:22:23 21° 85° (E) 10:25:55 435.000/436.395/437.385
SEEDS 04 Sep 10:19:56 10:24:01 46° 99° (E) 10:28:04 437.485
CUBEBUG 2 04 Sep 10:20:03 10:23:59 26° 88° (E) 10:27:54 437.445
QB50P1 04 Sep 10:23:05 10:26:56 34° 56° (ENE) 10:30:51 145.935-145.965
HO-68 04 Sep 10:32:24 10:39:34 62° 105° (ESE) 10:46:44 435.675
Oscar 19 04 Sep 10:33:42 10:36:20 14° 27° (NNE) 10:39:04 437.125/150
Cubesat XI-IV 04 Sep 10:34:28 10:38:58 28° 314° (NW) 10:43:24 437.490
COMPASS 1 04 Sep 10:35:12 10:39:17 50° 100° (E) 10:43:21 437.405
BRITE-PL 04 Sep 10:36:09 10:41:26 55° 298° (WNW) 10:46:56 437.365/2234.400
DELFI C3 04 Sep 10:38:04 10:41:06 20° 88° (E) 10:44:10 145.870
DOVE 4 04 Sep 10:39:10 10:44:31 89° 296° (WNW) 10:49:52 437.250
AAUSAT CUBESAT 2 04 Sep 10:41:51 10:45:55 50° 100° (E) 10:49:58 437.432
YUBILEINY 04 Sep 10:42:18 10:49:53 33° 283° (WNW) 10:57:18 435.215
GOMX 1 04 Sep 10:44:56 10:50:18 65° 295° (WNW) 10:55:46 467.674
AUBIESAT-1 04 Sep 10:44:59 10:49:39 77° 246° (WSW) 10:54:05 437.475
Oscar 11 04 Sep 10:47:09 10:51:05 33° 94° (E) 10:55:01 145.826/435.025
ISS 04 Sep 10:48:56 10:50:06 12° 168° (SSE) 10:51:17 145.825
M-CUBED/EXP-1 PRIME 04 Sep 10:54:19 10:59:01 61° 248° (WSW) 11:03:28 437.505
CINEMA 3 04 Sep 10:55:50 11:00:55 72° 105° (ESE) 11:05:52 145.822/145.860
DANDE 04 Sep 11:01:29 11:08:35 78° 68° (ENE) 11:17:02 436.750
UNISAT 6 04 Sep 11:03:15 11:08:00 74° 255° (WSW) 11:12:43 437.425
BUGSAT 1 04 Sep 11:13:52 11:17:54 51° 63° (ENE) 11:22:00 437.445
JAS-2 04 Sep 11:15:21 11:20:32 20° 15° (NNE) 11:25:33 435.910
CUTE-I 04 Sep 11:18:29 11:22:14 20° 324° (NW) 11:25:55 437.470
DUCHIFAT 1 04 Sep 11:23:47 11:28:04 80° 69° (ENE) 11:32:23 145.980
AIST 1 04 Sep 11:23:51 11:26:39 17° 315° (NW) 11:29:24
AO-7 04 Sep 11:24:30 11:31:10 28° 1° (N) 11:37:48 29.400- 29.500
AISAT 04 Sep 11:25:01 11:27:18 14° 81° (E) 11:29:44 437.250
POLYITAN 1 04 Sep 11:26:02 11:30:21 86° 71° (ENE) 11:34:43 437.675
CUTE 1.7 + AOD 2 04 Sep 11:26:50 11:31:00 52° 296° (WNW) 11:35:06 437.475
POPSAT HIP 1 04 Sep 11:26:59 11:31:18 86° 75° (ENE) 11:35:39 437.405
ESTCUBE 1 04 Sep 11:27:01 11:28:39 12° 78° (ENE) 11:30:26 437.505/2401.250
TIGRISAT 04 Sep 11:30:25 11:35:02 51° 260° (W) 11:39:38 435.000
GONETS M04 04 Sep 11:35:00 11:42:33 31° 36° (NE) 11:50:12
Cosmos 2499 04 Sep 11:35:11 11:41:42 22° 12° (NNE) 11:48:07 435.465 / 435.565
ZACube-1 04 Sep 11:38:55 11:43:26 58° 102° (ESE) 11:47:50 437.345
ITAMSAT 1 04 Sep 11:41:09 11:43:55 15° 27° (NNE) 11:46:46 435.822/435.867
CANX-2 04 Sep 11:41:37 11:45:37 39° 300° (WNW) 11:49:33 2200.000
FUNcube-1 04 Sep 11:42:25 11:46:57 61° 102° (ESE) 11:51:21 145.935
NANOSAT C BR1 04 Sep 11:42:52 11:47:09 75° 253° (WSW) 11:51:29 145.865
Cosmos 2491 04 Sep 11:44:47 11:53:16 52° 303° (WNW) 12:01:46 435.465 / 435.565
QB50P2 04 Sep 11:45:08 11:49:25 70° 255° (WSW) 11:53:45 145.880/145.840
Gurwin Techsat 1B 04 Sep 11:45:54 11:49:08 17° 31° (NNE) 11:52:27 435.225
CUSAT 1 04 Sep 11:47:13 11:54:33 60° 262° (W) 12:02:36 437.405
Cosmos 2504 04 Sep 11:48:23 11:56:44 57° 269° (W) 12:04:39 435.465 / 435.565
ANTELSAT 04 Sep 11:49:36 11:54:02 38° 264° (W) 11:58:26 437.575/2403.000
HUMSAT D 04 Sep 11:50:43 11:54:43 37° 96° (E) 11:58:40 437.325/437.525
VELOX 1 04 Sep 11:51:27 11:54:44 20° 86° (E) 11:58:07 145.980
PCSat 04 Sep 11:54:22 11:58:00 18° 249° (WSW) 12:01:31 145.827
UWE-3 04 Sep 11:54:54 11:59:36 88° 115° (ESE) 12:04:10 435.000/436.395/437.385
SEEDS 04 Sep 11:55:51 11:59:47 38° 300° (WNW) 12:03:40 437.485
CUBEBUG 2 04 Sep 11:56:26 12:01:13 78° 291° (WNW) 12:05:51 437.445
QB50P1 04 Sep 11:58:25 12:02:39 57° 257° (WSW) 12:06:55 145.935-145.965
Oscar 19 04 Sep 12:09:51 12:14:24 32° 50° (NE) 12:19:00 437.125/150
COMPASS 1 04 Sep 12:11:02 12:14:52 35° 302° (WNW) 12:18:39 437.405
DELFI C3 04 Sep 12:12:38 12:16:40 81° 290° (WNW) 12:20:40 145.870
Cubesat XI-IV 04 Sep 12:15:04 12:17:38 14° 338° (NNW) 12:20:08 437.490
BRITE-PL 04 Sep 12:15:10 12:19:06 21° 319° (NW) 12:23:07 437.365/2234.400
DOVE 4 04 Sep 12:17:14 12:21:47 29° 310° (NW) 12:26:19 437.250
AAUSAT CUBESAT 2 04 Sep 12:17:37 12:21:27 35° 301° (WNW) 12:25:13 437.432
HO-68 04 Sep 12:20:22 12:27:20 53° 308° (NW) 12:34:16 435.675
AUBIESAT-1 04 Sep 12:21:35 12:24:59 19° 265° (W) 12:28:12 437.475
DX 1 04 Sep 12:21:55 12:26:05 40° 98° (E) 12:30:16 434.975-435.025
50 SAT 04 Sep 12:22:34 12:26:09 34° 96° (E) 12:29:42 437.505
Oscar 11 04 Sep 12:23:15 12:27:30 55° 296° (WNW) 12:31:44 145.826/435.025
GOMX 1 04 Sep 12:23:29 12:27:42 24° 316° (NW) 12:31:55 467.674
ISS 04 Sep 12:24:04 12:25:32 12° 187° (S) 12:27:00 145.825
UKube-1 04 Sep 12:28:05 12:32:13 41° 99° (E) 12:36:22 .
SPROUT 04 Sep 12:28:56 12:30:54 13° 79° (E) 12:33:01 437.525
M-CUBED/EXP-1 PRIME 04 Sep 12:31:40 12:34:36 16° 269° (W) 12:37:21 437.505
CINEMA 3 04 Sep 12:33:17 12:37:49 34° 306° (NW) 12:42:14 145.822/145.860
YUBILEINY 04 Sep 12:41:15 12:43:52 11° 310° (NW) 12:46:07 435.215
UNISAT 6 04 Sep 12:42:15 12:45:35 18° 276° (W) 12:48:50 437.425
DANDE 04 Sep 12:44:49 12:51:32 42° 268° (W) 12:59:12 436.750
CUBEBUG 1 04 Sep 12:48:20 12:52:25 35° 95° (E) 12:56:31 437.445
BUGSAT 1 04 Sep 12:49:44 12:53:32 34° 265° (W) 12:57:24 437.445
JAS-2 04 Sep 12:57:01 13:03:42 33° 40° (NE) 13:10:10 435.910
CUTE-I 04 Sep 12:58:58 13:00:34 11° 349° (N) 13:02:08 437.470
AISAT 04 Sep 13:00:26 13:04:53 58° 103° (ESE) 13:09:21 437.250
DUCHIFAT 1 04 Sep 13:00:57 13:04:23 23° 271° (W) 13:07:47 145.980
ESTCUBE 1 04 Sep 13:02:16 13:06:41 50° 101° (E) 13:11:05 437.505/2401.250
POLYITAN 1 04 Sep 13:03:29 13:06:50 21° 272° (W) 13:10:09 437.675
CUTE 1.7 + AOD 2 04 Sep 13:03:31 13:06:08 16° 317° (NW) 13:08:41 437.475
POPSAT HIP 1 04 Sep 13:04:25 13:07:45 21° 272° (W) 13:11:03 437.405
TIGRISAT 04 Sep 13:10:43 13:12:56 13° 283° (WNW) 13:14:58 435.000
AO-7 04 Sep 13:14:46 13:22:04 36° 28° (NNE) 13:29:24 29.400- 29.500
ZACube-1 04 Sep 13:15:28 13:19:39 35° 303° (WNW) 13:23:41 437.345
HORYU 2 04 Sep 13:15:52 13:17:20 12° 29° (NNE) 13:18:53 437.375
TISAT 1 04 Sep 13:16:06 13:19:05 18° 86° (E) 13:22:08 437.305
ITAMSAT 1 04 Sep 13:17:35 13:22:11 33° 51° (NE) 13:26:49 435.822/435.867
CANX-2 04 Sep 13:18:33 13:20:35 13° 322° (NW) 13:22:33 2200.000
FUNcube-1 04 Sep 13:18:57 13:23:06 34° 304° (NW) 13:27:06 145.935
NANOSAT C BR1 04 Sep 13:20:55 13:23:45 17° 276° (W) 13:26:31 145.865
Gurwin Techsat 1B 04 Sep 13:23:05 13:27:59 39° 54° (NE) 13:32:56 435.225
QB50P2 04 Sep 13:23:26 13:26:09 16° 277° (W) 13:28:45 145.880/145.840
HUMSAT D 04 Sep 13:26:26 13:30:35 47° 298° (WNW) 13:34:38 437.325/437.525
VELOX 1 04 Sep 13:27:27 13:31:58 86° 108° (ESE) 13:36:28 145.980
Cosmos 2499 04 Sep 13:30:06 13:38:02 35° 42° (NE) 13:45:42 435.465 / 435.565
CUSAT 1 04 Sep 13:30:24 13:36:03 23° 283° (WNW) 13:41:53 437.405
UWE-3 04 Sep 13:31:47 13:35:41 26° 310° (NW) 13:39:26 435.000/436.395/437.385
GONETS M04 04 Sep 13:32:33 13:41:20 66° 66° (ENE) 13:50:09
SEEDS 04 Sep 13:32:42 13:34:37 13° 322° (NW) 13:36:29 437.485
CUBEBUG 2 04 Sep 13:33:33 13:37:20 24° 312° (NW) 13:41:00 437.445
QB50P1 04 Sep 13:37:24 13:39:30 13° 280° (W) 13:41:29 145.935-145.965
Cosmos 2504 04 Sep 13:41:17 13:47:15 21° 294° (WNW) 13:52:50 435.465 / 435.565
Cosmos 2491 04 Sep 13:45:32 13:52:36 26° 332° (NNW) 13:59:38 435.465 / 435.565
COMPASS 1 04 Sep 13:47:54 13:49:32 12° 323° (NW) 13:51:05 437.405
Oscar 19 04 Sep 13:48:11 13:53:24 82° 251° (WSW) 13:58:40 437.125/150
DELFI C3 04 Sep 13:48:14 13:51:14 20° 311° (NW) 13:54:10 145.870
ITUPSAT 1 04 Sep 13:54:09 13:55:41 12° 76° (ENE) 13:57:24 437.325
AAUSAT CUBESAT 2 04 Sep 13:54:26 13:56:02 12° 323° (NW) 13:57:34 437.432
Cubesat XI-IV 04 Sep 13:54:35 13:55:44 11° 3° (N) 13:56:53 437.490
BRITE-PL 04 Sep 13:54:40 13:55:56 11° 342° (NNW) 13:57:08 437.365/2234.400
DOVE 4 04 Sep 13:55:41 13:58:09 13° 333° (NNW) 14:00:33 437.250
50 SAT 04 Sep 13:57:02 14:00:48 46° 297° (WNW) 14:04:30 437.505
DX 1 04 Sep 13:58:12 14:02:26 47° 300° (WNW) 14:06:40 434.975-435.025
Oscar 11 04 Sep 14:00:07 14:02:57 17° 317° (NW) 14:05:42 145.826/435.025
GOMX 1 04 Sep 14:02:25 14:04:13 12° 339° (NNW) 14:05:57 467.674
SPROUT 04 Sep 14:03:41 14:08:00 56° 102° (ESE) 14:12:17 437.525
UKube-1 04 Sep 14:04:15 14:08:26 45° 300° (WNW) 14:12:36 .
HO-68 04 Sep 14:08:04 14:13:53 27° 333° (NNW) 14:19:39 435.675
CINEMA 3 04 Sep 14:11:12 14:13:46 14° 329° (NNW) 14:16:15 145.822/145.860
RS-15 04 Sep 14:14:58 14:15:37 10° 84° (E) 14:17:02 29.354- 29.394
BEESAT 04 Sep 14:23:33 14:26:49 18° 84° (E) 14:30:10 436.000
CUBEBUG 1 04 Sep 14:24:39 14:28:58 53° 297° (WNW) 14:33:18 437.445
DANDE 04 Sep 14:29:13 14:33:16 15° 289° (WNW) 14:37:19 436.750
CUTE-I 04 Sep 14:36:47 14:38:35 12° 14° (NNE) 14:40:26 437.470
AISAT 04 Sep 14:37:13 14:41:19 35° 304° (NW) 14:45:24 437.250
ESTCUBE 1 04 Sep 14:39:17 14:43:31 40° 302° (WNW) 14:47:43 437.505/2401.250
JAS-2 04 Sep 14:40:03 14:47:53 71° 63° (ENE) 14:55:25 435.910
HORYU 2 04 Sep 14:48:54 14:52:46 29° 52° (NE) 14:56:40 437.375
SWISSCUBE 04 Sep 14:49:46 14:53:51 28° 91° (E) 14:57:58 437.505
TISAT 1 04 Sep 14:51:13 14:55:32 82° 108° (ESE) 14:59:50 437.305
ZACube-1 04 Sep 14:52:46 14:54:53 13° 326° (NW) 14:56:55 437.345
ITAMSAT 1 04 Sep 14:56:13 15:01:25 76° 254° (WSW) 15:06:38 435.822/435.867
FUNcube-1 04 Sep 14:56:16 14:58:17 13° 326° (NW) 15:00:13 145.935
Gurwin Techsat 1B 04 Sep 15:02:32 15:07:50 64° 256° (WSW) 15:13:09 435.225
HUMSAT D 04 Sep 15:02:58 15:05:28 15° 319° (NW) 15:07:53 437.325/437.525
VELOX 1 04 Sep 15:04:23 15:08:08 26° 310° (NW) 15:11:49 145.980
AO-7 04 Sep 15:05:39 15:13:53 68° 54° (NE) 15:22:09 29.400- 29.500
UWE-3 04 Sep 15:09:41 15:10:51 11° 332° (NNW) 15:11:57 435.000/436.395/437.385
CUBEBUG 2 04 Sep 15:11:51 15:12:34 10° 335° (NNW) 15:13:11 437.445
Cosmos 2499 04 Sep 15:23:49 15:32:44 78° 71° (ENE) 15:41:05 435.465 / 435.565
BEESAT 3 04 Sep 15:28:47 15:31:55 22° 126° (SE) 15:35:07 437.485
Oscar 19 04 Sep 15:29:30 15:33:35 22° 274° (W) 15:37:37 437.125/150
GONETS M04 04 Sep 15:29:43 15:38:07 51° 271° (W) 15:46:30
ITUPSAT 1 04 Sep 15:30:15 15:34:53 46° 100° (E) 15:39:29 437.325
Cubesat XI-IV 04 Sep 15:30:53 15:33:55 16° 28° (NNE) 15:37:02 437.490
50 SAT 04 Sep 15:32:32 15:34:32 13° 318° (NW) 15:36:25 437.505
DX 1 04 Sep 15:35:10 15:37:51 16° 321° (NW) 15:40:28 434.975-435.025
STARS 04 Sep 15:35:53 15:37:26 12° 78° (ENE) 15:39:08 437.465
SPROUT 04 Sep 15:39:58 15:43:56 35° 303° (WNW) 15:47:53 437.525
UKube-1 04 Sep 15:41:08 15:43:42 15° 322° (NW) 15:46:12 .
Cosmos 2491 04 Sep 15:47:00 15:53:14 21° 5° (N) 15:59:31 435.465 / 435.565
BEESAT 2 04 Sep 15:47:00 15:50:18 24° 128° (SE) 15:53:39 435.950
HO-68 04 Sep 15:54:38 15:59:39 21° 359° (N) 16:04:39 435.675
BEESAT 04 Sep 16:00:44 16:05:32 74° 107° (ESE) 16:10:18 436.000
CUBEBUG 1 04 Sep 16:01:41 16:04:33 17° 318° (NW) 16:07:23 437.445
KKS-1 04 Sep 16:03:52 16:07:36 25° 90° (E) 16:11:23 437.445
CUTE-I 04 Sep 16:13:06 16:17:00 21° 38° (NE) 16:20:57 437.470
AISAT 04 Sep 16:14:42 16:16:51 13° 326° (NW) 16:18:55 437.250
RS-15 04 Sep 16:14:48 16:24:07 35° 111° (ESE) 16:34:01 29.354- 29.394
ESTCUBE 1 04 Sep 16:16:59 16:19:25 14° 324° (NW) 16:21:46 437.505/2401.250
HORYU 2 04 Sep 16:24:34 16:29:06 77° 253° (WSW) 16:33:38 437.375
JAS-2 04 Sep 16:25:44 16:33:19 48° 265° (W) 16:40:39 435.910
AIST 1 04 Sep 16:26:00 16:26:28 10° 33° (NNE) 16:27:04
TISAT 1 04 Sep 16:27:21 16:30:55 26° 309° (NW) 16:34:27 437.305
SWISSCUBE 04 Sep 16:27:25 16:32:12 74° 293° (WNW) 16:36:58 437.505
ITAMSAT 1 04 Sep 16:37:56 16:41:49 21° 275° (W) 16:45:38 435.822/435.867
VELOX 1 04 Sep 16:42:24 16:43:25 11° 332° (NNW) 16:44:21 145.980
Gurwin Techsat 1B 04 Sep 16:45:21 16:48:56 18° 279° (W) 16:52:25 435.225
MOZHAYETS 4 04 Sep 16:47:03 16:49:49 16° 81° (E) 16:52:43
AIST 2 04 Sep 16:52:16 16:55:41 24° 127° (SE) 16:59:09 435.215
AO-7 04 Sep 16:59:00 17:07:08 52° 259° (WSW) 17:15:15 29.400- 29.500
BEESAT 3 04 Sep 17:05:15 17:09:19 67° 148° (SSE) 17:13:24 437.485
BRITE-PL 04 Sep 17:06:07 17:08:50 15° 31° (NNE) 17:11:44 437.365/2234.400
DOVE 4 04 Sep 17:07:57 17:09:29 11° 21° (NNE) 17:11:07 437.250
Cubesat XI-IV 04 Sep 17:08:01 17:12:47 35° 51° (NE) 17:17:37 437.490
ITUPSAT 1 04 Sep 17:08:15 17:12:50 46° 301° (WNW) 17:17:23 437.325
STARS 04 Sep 17:10:39 17:15:02 49° 101° (E) 17:19:22 437.465
GOMX 1 04 Sep 17:13:51 17:16:17 14° 28° (NNE) 17:18:52 467.674
SPROUT 04 Sep 17:17:06 17:18:58 12° 325° (NW) 17:20:47 437.525
Cosmos 2499 04 Sep 17:17:21 17:25:27 42° 276° (W) 17:33:02 435.465 / 435.565
BEESAT 2 04 Sep 17:23:45 17:27:52 72° 149° (SSE) 17:31:59 435.950
GONETS M04 04 Sep 17:27:23 17:33:02 19° 297° (WNW) 17:38:27
BEESAT 04 Sep 17:38:52 17:43:06 32° 308° (NW) 17:47:16 436.000
HO-68 04 Sep 17:39:41 17:45:23 27° 26° (NNE) 17:51:08 435.675
KKS-1 04 Sep 17:40:12 17:44:44 77° 292° (WNW) 17:49:14 437.445
Cosmos 2491 04 Sep 17:46:07 17:53:37 31° 36° (NE) 18:01:13 435.465 / 435.565
CUTE-I 04 Sep 17:51:03 17:56:14 57° 61° (ENE) 18:01:29 437.470
CANX-2 04 Sep 18:01:43 18:02:45 11° 33° (NNE) 18:03:52 2200.000
AIST 1 04 Sep 18:01:48 18:05:38 30° 58° (ENE) 18:09:30
HORYU 2 04 Sep 18:03:21 18:06:30 18° 275° (W) 18:09:35 437.375
SWISSCUBE 04 Sep 18:05:44 18:09:28 23° 315° (NW) 18:13:10 437.505
JAS-2 04 Sep 18:15:25 18:20:23 17° 290° (WNW) 18:25:00 435.910
SEEDS 04 Sep 18:15:27 18:16:22 11° 34° (NNE) 18:17:23 437.485
MOZHAYETS 4 04 Sep 18:23:24 18:27:59 67° 105° (ESE) 18:32:32
RS-15 04 Sep 18:23:54 18:34:54 72° 139° (SE) 18:46:31 29.354- 29.394
AIST 2 04 Sep 18:29:30 18:33:45 71° 149° (SSE) 18:38:00 435.215
COMPASS 1 04 Sep 18:29:48 18:30:55 11° 35° (NE) 18:32:07 437.405
AAUSAT CUBESAT 2 04 Sep 18:36:12 18:37:14 11° 35° (NE) 18:38:21 437.432
DOVE 4 04 Sep 18:41:44 18:45:38 23° 44° (NE) 18:49:44 437.250
BRITE-PL 04 Sep 18:41:44 18:46:05 36° 55° (NE) 18:50:51 437.365/2234.400
BEESAT 3 04 Sep 18:43:15 18:47:20 65° 349° (N) 18:51:24 437.485
ITUPSAT 1 04 Sep 18:46:47 18:49:48 17° 323° (NW) 18:52:46 437.325
STARS 04 Sep 18:47:14 18:51:26 40° 302° (WNW) 18:55:36 437.465
Cubesat XI-IV 04 Sep 18:47:18 18:52:39 74° 253° (WSW) 18:58:01 437.490
GOMX 1 04 Sep 18:48:42 18:53:01 31° 51° (NE) 18:57:37 467.674
CUBESAT XI-V 04 Sep 18:52:15 18:55:58 23° 88° (E) 18:59:44 437.345
CINEMA 3 04 Sep 18:56:11 18:59:33 19° 40° (NE) 19:03:03 145.822/145.860
AO-7 04 Sep 18:56:41 19:02:15 18° 285° (WNW) 19:07:33 29.400- 29.500
BEESAT 2 04 Sep 19:01:54 19:06:01 64° 351° (N) 19:10:07 435.950
O/OREOS (USA 219) 04 Sep 19:02:24 19:05:57 23° 108° (ESE) 19:09:35 437.305
Cosmos 2499 04 Sep 19:11:38 19:16:19 16° 302° (WNW) 19:20:37 435.465 / 435.565
KKS-1 04 Sep 19:17:18 19:20:49 22° 313° (NW) 19:24:18 437.445
BEESAT 04 Sep 19:17:33 19:19:44 13° 331° (NNW) 19:21:52 436.000
CUTE 1.7 + AOD 2 04 Sep 19:19:33 19:22:56 24° 51° (NE) 19:26:23 437.475
HO-68 04 Sep 19:25:00 19:31:53 51° 51° (NE) 19:38:49 435.675
CUTE-I 04 Sep 19:31:31 19:36:34 42° 263° (W) 19:41:38 437.470
CANX-2 04 Sep 19:33:50 19:37:33 30° 55° (NE) 19:41:18 2200.000
ZACube-1 04 Sep 19:35:51 19:38:16 14° 37° (NE) 19:40:47 437.345
FUNcube-1 04 Sep 19:39:06 19:41:34 15° 38° (NE) 19:44:07 145.935
AIST 1 04 Sep 19:39:19 19:43:38 63° 260° (W) 19:47:56
Cosmos 2491 04 Sep 19:43:40 19:52:25 66° 65° (ENE) 20:01:10 435.465 / 435.565
SWISSCUBE 04 Sep 19:44:52 19:45:53 11° 338° (NNW) 19:46:49 437.505
SEEDS 04 Sep 19:47:22 19:51:03 30° 55° (NE) 19:54:46 437.485
UWE-3 04 Sep 19:51:32 19:54:49 19° 44° (NE) 19:58:10 435.000/436.395/437.385
CUBEBUG 2 04 Sep 19:53:25 19:57:04 22° 46° (NE) 20:00:46 437.445
MOZHAYETS 4 04 Sep 20:00:54 20:04:59 32° 305° (NW) 20:09:01
COMPASS 1 04 Sep 20:01:47 20:05:30 31° 56° (ENE) 20:09:14 437.405
DELFI C3 04 Sep 20:02:20 20:04:42 15° 44° (NE) 20:07:07 145.870
YUBILEINY 04 Sep 20:05:18 20:12:12 28° 72° (ENE) 20:19:17 435.215
AAUSAT CUBESAT 2 04 Sep 20:08:04 20:11:45 31° 56° (ENE) 20:15:27 437.432
AIST 2 04 Sep 20:08:12 20:12:27 65° 351° (N) 20:16:40 435.215
Oscar 11 04 Sep 20:17:21 20:20:53 25° 51° (NE) 20:24:27 145.826/435.025
DOVE 4 04 Sep 20:17:44 20:22:40 69° 67° (ENE) 20:27:53 437.250
DX 1 04 Sep 20:19:29 20:21:12 12° 32° (NNE) 20:23:01 434.975-435.025
BRITE-PL 04 Sep 20:19:42 20:24:24 64° 257° (WSW) 20:29:35 437.365/2234.400
BEESAT 3 04 Sep 20:21:28 20:25:34 68° 13° (NNE) 20:29:37 437.485
STARS 04 Sep 20:24:29 20:26:55 14° 324° (NW) 20:29:15 437.465
UKube-1 04 Sep 20:25:00 20:26:43 12° 33° (NNE) 20:28:30 .
GOMX 1 04 Sep 20:25:51 20:30:45 81° 255° (WSW) 20:36:02 467.674
STRAND 1 04 Sep 20:27:01 20:31:48 39° 96° (E) 20:36:36 437.568
CUBESAT XI-V 04 Sep 20:29:19 20:34:00 85° 290° (WNW) 20:38:40 437.345
Cubesat XI-IV 04 Sep 20:29:45 20:33:43 20° 276° (W) 20:37:36 437.490
CINEMA 3 04 Sep 20:31:05 20:35:51 52° 62° (ENE) 20:40:46 145.822/145.860
RS-15 04 Sep 20:36:08 20:47:30 82° 350° (N) 20:59:27 29.354- 29.394
PRISM 04 Sep 20:37:01 20:40:44 32° 95° (E) 20:44:28 437.425
BEESAT 2 04 Sep 20:40:15 20:44:22 70° 15° (NNE) 20:48:28 435.950
O/OREOS (USA 219) 04 Sep 20:40:16 20:44:52 85° 129° (SE) 20:49:31 437.305
CUBEBUG 1 04 Sep 20:47:11 20:48:09 11° 30° (NNE) 20:49:13 437.445
CUTE 1.7 + AOD 2 04 Sep 20:54:09 20:58:27 89° 251° (WSW) 21:02:45 437.475
Cosmos 2504 04 Sep 20:55:14 20:57:41 12° 52° (NE) 21:00:30 435.465 / 435.565
AISAT 04 Sep 20:58:32 21:01:05 15° 38° (NE) 21:03:43 437.250
ESTCUBE 1 04 Sep 21:02:14 21:04:29 14° 36° (NE) 21:06:50 437.505/2401.250
CANX-2 04 Sep 21:08:58 21:13:15 66° 256° (WSW) 21:17:31 2200.000
ZACube-1 04 Sep 21:09:20 21:13:38 40° 59° (ENE) 21:17:57 437.345
HO-68 04 Sep 21:12:26 21:19:35 65° 254° (WSW) 21:26:48 435.675
FUNcube-1 04 Sep 21:12:36 21:16:55 41° 59° (ENE) 21:21:15 145.935
CUTE-I 04 Sep 21:16:34 21:18:15 11° 287° (WNW) 21:19:42 437.470
HUMSAT D 04 Sep 21:18:00 21:21:36 26° 52° (NE) 21:25:13 437.325/437.525
AIST 1 04 Sep 21:18:13 21:20:31 14° 281° (W) 21:22:42
SEEDS 04 Sep 21:22:23 21:26:37 65° 256° (WSW) 21:30:51 437.485
VELOX 1 04 Sep 21:24:33 21:27:41 19° 44° (NE) 21:30:53 145.980
UWE-3 04 Sep 21:25:59 21:30:36 59° 65° (ENE) 21:35:15 435.000/436.395/437.385
CUBEBUG 2 04 Sep 21:28:22 21:33:07 71° 67° (ENE) 21:37:54 437.445
DELFI C3 04 Sep 21:35:05 21:39:01 53° 65° (ENE) 21:42:58 145.870
COMPASS 1 04 Sep 21:36:49 21:40:59 60° 257° (WSW) 21:45:10 437.405
MOZHAYETS 4 04 Sep 21:39:11 21:41:03 12° 328° (NNW) 21:42:51
Cosmos 2491 04 Sep 21:40:53 21:49:13 51° 271° (W) 21:57:32 435.465 / 435.565
50 SAT 04 Sep 21:42:53 21:45:53 21° 51° (NE) 21:48:55 437.505
AAUSAT CUBESAT 2 04 Sep 21:43:00 21:47:09 60° 257° (WSW) 21:51:18 437.432
AIST 2 04 Sep 21:47:04 21:51:21 71° 16° (NNE) 21:55:32 435.215
Oscar 11 04 Sep 21:52:17 21:56:40 87° 253° (WSW) 22:01:03 145.826/435.025
DX 1 04 Sep 21:52:29 21:56:22 33° 55° (NE) 22:00:19 434.975-435.025
DOVE 4 04 Sep 21:56:25 22:00:51 32° 270° (W) 22:05:30 437.250
UKube-1 04 Sep 21:57:54 22:01:46 33° 55° (NE) 22:05:41 .
YUBILEINY 04 Sep 21:59:00 22:07:45 73° 98° (E) 22:16:36 435.215
BEESAT 3 04 Sep 21:59:29 22:03:31 58° 216° (SW) 22:07:29 437.485
SPROUT 04 Sep 21:59:38 22:01:38 13° 36° (NE) 22:03:43 437.525
BRITE-PL 04 Sep 22:00:59 22:04:07 17° 282° (WNW) 22:07:16 437.365/2234.400
GOMX 1 04 Sep 22:05:57 22:09:45 22° 278° (W) 22:13:41 467.674
STRAND 1 04 Sep 22:06:15 22:11:18 58° 298° (WNW) 22:16:18 437.568
CUBESAT XI-V 04 Sep 22:07:12 22:10:58 25° 311° (NW) 22:14:41 437.345
CINEMA 3 04 Sep 22:08:29 22:13:11 43° 264° (W) 22:18:00 145.822/145.860
PRISM 04 Sep 22:12:21 22:16:23 53° 296° (WNW) 22:20:24 437.425
BEESAT 2 04 Sep 22:18:22 22:22:23 54° 218° (SW) 22:26:22 435.950
CUBEBUG 1 04 Sep 22:19:36 22:23:18 28° 52° (NE) 22:27:03 437.445
O/OREOS (USA 219) 04 Sep 22:20:29 22:24:46 37° 333° (NNW) 22:29:05 437.305
BEESAT 04 Sep 22:31:28 22:31:33 10° 20° (NNE) 22:31:43 436.000
CUTE 1.7 + AOD 2 04 Sep 22:31:47 22:34:59 20° 274° (W) 22:38:06 437.475
AISAT 04 Sep 22:32:32 22:36:45 44° 59° (ENE) 22:41:02 437.250
ESTCUBE 1 04 Sep 22:36:12 22:40:22 39° 58° (ENE) 22:44:33 437.505/2401.250
Cosmos 2504 04 Sep 22:40:05 22:47:16 33° 77° (ENE) 22:54:42 435.465 / 435.565
TISAT 1 04 Sep 22:44:40 22:47:18 16° 42° (NE) 22:50:00 437.305
UNISAT 6 04 Sep 22:45:23 22:47:41 14° 79° (ENE) 22:50:05 437.425
ZACube-1 04 Sep 22:45:25 22:49:56 52° 260° (W) 22:54:28 437.345
CANX-2 04 Sep 22:47:32 22:50:03 15° 279° (W) 22:52:26 2200.000
FUNcube-1 04 Sep 22:48:42 22:53:12 50° 261° (W) 22:57:42 145.935
RS-15 04 Sep 22:49:07 23:00:39 88° 21° (NNE) 23:12:46 29.354- 29.394
HUMSAT D 04 Sep 22:52:37 22:56:58 80° 253° (WSW) 23:01:20 437.325/437.525
SWISSCUBE 04 Sep 22:55:53 22:57:42 12° 27° (NNE) 22:59:35 437.505
VELOX 1 04 Sep 22:59:10 23:03:33 63° 65° (ENE) 23:07:59 145.980
SEEDS 04 Sep 23:00:50 23:03:16 15° 278° (W) 23:05:35 437.485
UWE-3 04 Sep 23:03:05 23:07:23 34° 267° (W) 23:11:42 435.000/436.395/437.385
HO-68 04 Sep 23:03:22 23:08:52 22° 279° (W) 23:14:12 435.675
CUBEBUG 2 04 Sep 23:06:02 23:10:14 29° 270° (W) 23:14:24 437.445
DELFI C3 04 Sep 23:10:40 23:14:18 31° 266° (W) 23:17:55 145.870
TIGRISAT 04 Sep 23:11:27 23:14:48 20° 85° (E) 23:18:11 435.000
COMPASS 1 04 Sep 23:15:27 23:17:35 13° 280° (W) 23:19:35 437.405
50 SAT 04 Sep 23:16:00 23:19:58 88° 75° (ENE) 23:23:56 437.505
NANOSAT C BR1 04 Sep 23:18:48 23:19:40 11° 77° (ENE) 23:20:42 145.865
QB50P2 04 Sep 23:21:02 23:22:28 12° 78° (ENE) 23:24:03 145.880/145.840
AAUSAT CUBESAT 2 04 Sep 23:21:34 23:23:40 13° 279° (W) 23:25:40 437.432
CUSAT 1 04 Sep 23:24:39 23:28:49 24° 78° (ENE) 23:33:58 437.405
AIST 2 04 Sep 23:25:44 23:29:54 55° 217° (SW) 23:33:59 435.215
DX 1 04 Sep 23:28:06 23:32:26 62° 255° (WSW) 23:36:48 434.975-435.025
Oscar 11 04 Sep 23:30:15 23:33:30 20° 274° (W) 23:36:41 145.826/435.025
ANTELSAT 04 Sep 23:30:17 23:34:10 26° 90° (E) 23:38:02 437.575/2403.000
SPROUT 04 Sep 23:32:44 23:36:43 38° 58° (ENE) 23:40:46 437.525
UKube-1 04 Sep 23:33:26 23:37:44 61° 257° (WSW) 23:42:03 .
QB50P1 04 Sep 23:33:26 23:35:39 14° 81° (E) 23:37:59 145.935-145.965
ITUPSAT 1 04 Sep 23:35:10 23:38:01 16° 36° (NE) 23:40:57 437.325
BEESAT 3 04 Sep 23:37:59 23:40:47 18° 237° (WSW) 23:43:30 437.485
Cosmos 2491 04 Sep 23:38:34 23:44:08 19° 297° (WNW) 23:49:28 435.465 / 435.565
STRAND 1 04 Sep 23:45:56 23:49:43 21° 320° (NW) 23:53:26 437.568
CUBESAT XI-V 04 Sep 23:46:21 23:47:03 10° 334° (NNW) 23:47:38 437.345
PRISM 04 Sep 23:48:31 23:51:05 16° 318° (NW) 23:53:36 437.425
CINEMA 3 04 Sep 23:50:14 23:51:49 11° 288° (WNW) 23:53:12 145.822/145.860
AUBIESAT-1 04 Sep 23:50:54 23:53:06 14° 90° (E) 23:55:18 437.475
CUBEBUG 1 04 Sep 23:54:58 23:59:19 77° 253° (WSW) 00:03:45 437.445
YUBILEINY 04 Sep 23:56:44 00:05:16 49° 305° (NW) 00:13:48 435.215
BEESAT 2 04 Sep 23:57:05 23:59:44 17° 238° (WSW) 00:02:16 435.950
M-CUBED/EXP-1 PRIME 05 Sep 00:00:22 00:03:20 19° 94° (E) 00:06:10 437.505
O/OREOS (USA 219) 05 Sep 00:01:26 00:05:19 25° 358° (N) 00:09:12 437.305
BEESAT 05 Sep 00:04:21 00:07:52 21° 43° (NE) 00:11:27 436.000
AISAT 05 Sep 00:09:06 00:13:23 44° 261° (W) 00:17:41 437.250
ESTCUBE 1 05 Sep 00:12:47 00:17:10 52° 259° (W) 00:21:36 437.505/2401.250
TISAT 1 05 Sep 00:18:09 00:22:17 53° 63° (ENE) 00:26:29 437.305
BUGSAT 1 05 Sep 00:20:41 00:23:54 21° 88° (E) 00:27:12 437.445
UNISAT 6 05 Sep 00:20:59 00:25:33 57° 102° (ESE) 00:30:01 437.425
SO-50 05 Sep 00:24:08 00:25:02 11° 111° (ESE) 00:26:08 436.795
ZACube-1 05 Sep 00:25:16 00:27:24 13° 283° (WNW) 00:29:24 437.345
DANDE 05 Sep 00:25:32 00:29:50 35° 88° (E) 00:35:29 436.750
FUNcube-1 05 Sep 00:28:41 00:30:40 12° 283° (WNW) 00:32:30 145.935
Cosmos 2504 05 Sep 00:30:05 00:38:35 84° 103° (ESE) 00:47:18 435.465 / 435.565
SWISSCUBE 05 Sep 00:30:14 00:34:16 29° 50° (NE) 00:38:22 437.505
HUMSAT D 05 Sep 00:30:21 00:33:25 18° 275° (W) 00:36:23 437.325/437.525
DUCHIFAT 1 05 Sep 00:33:16 00:37:12 33° 95° (E) 00:41:08 145.980
POLYITAN 1 05 Sep 00:36:20 00:40:23 37° 96° (E) 00:44:24 437.675
VELOX 1 05 Sep 00:36:32 00:40:27 30° 267° (W) 00:44:23 145.980
POPSAT HIP 1 05 Sep 00:37:02 00:41:04 37° 96° (E) 00:45:05 437.405
TIGRISAT 05 Sep 00:47:38 00:52:18 83° 106° (ESE) 00:56:50 435.000
50 SAT 05 Sep 00:52:11 00:55:03 19° 273° (W) 00:57:51 437.505
NANOSAT C BR1 05 Sep 00:52:28 00:56:39 46° 100° (E) 01:00:49 145.865
QB50P2 05 Sep 00:55:13 00:59:27 50° 101° (E) 01:03:39 145.880/145.840
GONETS M04 05 Sep 00:56:16 01:01:07 17° 60° (ENE) 01:06:16
RS-15 05 Sep 01:01:33 01:12:49 59° 230° (SW) 01:24:29 29.354- 29.394
AIST 2 05 Sep 01:04:57 01:07:44 17° 239° (WSW) 01:10:26 435.215
CUSAT 1 05 Sep 01:05:03 01:10:16 79° 105° (ESE) 01:17:12 437.405
PCSat 05 Sep 01:05:42 01:07:49 13° 105° (ESE) 01:10:08 145.827
ANTELSAT 05 Sep 01:06:48 01:11:27 74° 292° (WNW) 01:15:56 437.575/2403.000
DX 1 05 Sep 01:07:10 01:09:37 14° 278° (W) 01:11:58 434.975-435.025
QB50P1 05 Sep 01:08:09 01:12:27 61° 103° (ESE) 01:16:43 145.935-145.965
SPROUT 05 Sep 01:08:30 01:12:43 50° 259° (W) 01:17:00 437.525
STARS 05 Sep 01:08:31 01:10:47 14° 35° (NE) 01:13:07 437.465
ITUPSAT 1 05 Sep 01:10:27 01:14:58 43° 58° (ENE) 01:19:29 437.325
UKube-1 05 Sep 01:12:27 01:14:48 14° 278° (W) 01:17:02 .
AUBIESAT-1 05 Sep 01:24:36 01:28:42 69° 113° (ESE) 01:32:27 437.475
STRAND 1 05 Sep 01:25:55 01:27:18 11° 344° (NNW) 01:28:38 437.568
CUBEBUG 1 05 Sep 01:33:28 01:36:27 18° 276° (W) 01:39:23 437.445
M-CUBED/EXP-1 PRIME 05 Sep 01:34:36 01:38:47 89° 303° (WNW) 01:42:36 437.505
KKS-1 05 Sep 01:37:11 01:40:42 23° 47° (NE) 01:44:17 437.445
BEESAT 05 Sep 01:40:19 01:45:03 65° 64° (ENE) 01:49:48 436.000
O/OREOS (USA 219) 05 Sep 01:41:44 01:45:55 33° 23° (NNE) 01:50:08 437.305
Oscar 19 05 Sep 01:49:08 01:52:36 18° 82° (E) 01:56:10 437.125/150
AISAT 05 Sep 01:50:30 01:51:13 10° 284° (WNW) 01:51:45 437.250
ESTCUBE 1 05 Sep 01:53:15 01:55:10 12° 282° (WNW) 01:56:58 437.505/2401.250
TISAT 1 05 Sep 01:54:21 01:58:15 34° 265° (W) 02:02:10 437.305
BUGSAT 1 05 Sep 01:55:39 01:59:57 87° 290° (WNW) 02:04:14 437.445
YUBILEINY 05 Sep 01:57:38 02:04:44 25° 335° (NNW) 02:11:45 435.215
UNISAT 6 05 Sep 01:57:56 02:02:13 37° 304° (WNW) 02:06:21 437.425
SO-50 05 Sep 01:59:57 02:04:23 35° 132° (SE) 02:08:55 436.795
SWISSCUBE 05 Sep 02:06:58 02:11:46 84° 252° (WSW) 02:16:35 437.505
DANDE 05 Sep 02:07:48 02:12:35 64° 297° (WNW) 02:19:05 436.750
DUCHIFAT 1 05 Sep 02:09:00 02:13:13 54° 296° (WNW) 02:17:24 145.980
POLYITAN 1 05 Sep 02:12:13 02:16:26 49° 297° (WNW) 02:20:36 437.675
POPSAT HIP 1 05 Sep 02:12:53 02:17:05 50° 298° (WNW) 02:21:16 437.405
Cosmos 2504 05 Sep 02:23:41 02:31:46 43° 309° (NW) 02:39:53 435.465 / 435.565
MOZHAYETS 4 05 Sep 02:24:17 02:27:08 17° 40° (NE) 02:30:02
TIGRISAT 05 Sep 02:24:43 02:28:40 27° 309° (NW) 02:32:28 435.000
Cosmos 2499 05 Sep 02:25:03 02:30:03 17° 61° (ENE) 02:35:21 435.465 / 435.565
NANOSAT C BR1 05 Sep 02:28:25 02:32:28 40° 301° (WNW) 02:36:29 145.865
QB50P2 05 Sep 02:31:15 02:35:16 37° 302° (WNW) 02:39:15 145.880/145.840
STARS 05 Sep 02:42:06 02:46:13 38° 57° (ENE) 02:50:24 437.465
ANTELSAT 05 Sep 02:44:03 02:47:37 22° 314° (NW) 02:51:05 437.575/2403.000
QB50P1 05 Sep 02:44:15 02:48:08 32° 304° (NW) 02:51:57 145.935-145.965
PCSat 05 Sep 02:44:58 02:50:02 42° 127° (SE) 02:55:08 145.827
GONETS M04 05 Sep 02:47:43 02:55:50 47° 86° (E) 03:04:05
ITUPSAT 1 05 Sep 02:48:12 02:52:52 50° 259° (W) 02:57:32 437.325
SPROUT 05 Sep 02:48:17 02:49:54 12° 282° (WNW) 02:51:24 437.525
CUSAT 1 05 Sep 02:48:25 02:53:36 37° 313° (NW) 03:00:06 437.405
ITAMSAT 1 05 Sep 02:58:19 03:01:54 19° 83° (E) 03:05:35 435.822/435.867
AUBIESAT-1 05 Sep 02:59:32 03:03:10 30° 316° (NW) 03:06:31 437.475
STRAND 1 05 Sep 03:04:24 03:04:28 10° 9° (N) 03:04:35 437.568
Gurwin Techsat 1B 05 Sep 03:07:33 03:11:55 25° 88° (E) 03:16:19 435.225
M-CUBED/EXP-1 PRIME 05 Sep 03:09:39 03:13:09 25° 320° (NW) 03:16:23 437.505
KKS-1 05 Sep 03:12:19 03:16:49 81° 69° (ENE) 03:21:22 437.445
RS-15 05 Sep 03:14:06 03:23:03 26° 257° (WSW) 03:31:52 29.354- 29.394
BEESAT 05 Sep 03:18:58 03:23:15 32° 267° (W) 03:27:32 436.000
O/OREOS (USA 219) 05 Sep 03:21:19 03:25:58 78° 46° (NE) 03:30:36 437.305
JAS-2 05 Sep 03:23:34 03:29:25 26° 80° (E) 03:34:51 435.910
Oscar 19 05 Sep 03:27:47 03:33:01 66° 105° (ESE) 03:38:12 437.125/150
BUGSAT 1 05 Sep 03:31:34 03:34:58 23° 310° (NW) 03:38:19 437.445
UNISAT 6 05 Sep 03:35:33 03:37:54 14° 326° (NW) 03:40:10 437.425
SO-50 05 Sep 03:39:37 03:44:36 85° 152° (SSE) 03:49:36 436.795
DUCHIFAT 1 05 Sep 03:45:30 03:48:15 17° 318° (NW) 03:50:57 145.980
SWISSCUBE 05 Sep 03:46:43 03:50:22 21° 274° (W) 03:53:56 437.505
POLYITAN 1 05 Sep 03:48:51 03:51:31 16° 319° (NW) 03:54:06 437.675
POPSAT HIP 1 05 Sep 03:49:29 03:52:09 16° 319° (NW) 03:54:44 437.405
DANDE 05 Sep 03:52:45 03:57:11 25° 326° (NW) 04:02:36 436.750
YUBILEINY 05 Sep 03:58:58 04:05:24 21° 7° (N) 04:11:49 435.215
MOZHAYETS 4 05 Sep 03:59:04 04:03:31 49° 62° (ENE) 04:07:58
TIGRISAT 05 Sep 04:02:40 04:04:07 11° 332° (NNW) 04:05:28 435.000
NANOSAT C BR1 05 Sep 04:05:09 04:07:21 14° 322° (NW) 04:09:28 145.865
HORYU 2 05 Sep 04:06:30 04:07:52 11° 78° (ENE) 04:09:22 437.375
QB50P2 05 Sep 04:08:07 04:10:10 13° 324° (NW) 04:12:09 145.880/145.840
Cosmos 2499 05 Sep 04:12:58 04:21:07 46° 86° (E) 04:29:26 435.465 / 435.565
STARS 05 Sep 04:18:15 04:22:36 52° 258° (WSW) 04:27:00 437.465
Cosmos 2504 05 Sep 04:20:04 04:26:41 23° 338° (NNW) 04:33:12 435.465 / 435.565
QB50P1 05 Sep 04:21:18 04:22:54 12° 326° (NNW) 04:24:25 145.935-145.965
PCSat 05 Sep 04:27:46 04:33:14 81° 330° (NNW) 04:38:44 145.827
ITUPSAT 1 05 Sep 04:29:53 04:32:00 12° 282° (WNW) 04:33:56 437.325
CUBESAT XI-V 05 Sep 04:30:25 04:33:51 21° 46° (NE) 04:37:22 437.345
CUSAT 1 05 Sep 04:33:51 04:38:22 20° 341° (NNW) 04:43:31 437.405
AUBIESAT-1 05 Sep 04:34:45 04:36:49 13° 338° (NNW) 04:38:46 437.475
ITAMSAT 1 05 Sep 04:37:12 04:42:25 70° 106° (ESE) 04:47:37 435.822/435.867
STRAND 1 05 Sep 04:38:42 04:41:53 17° 34° (NNE) 04:45:08 437.568
GONETS M04 05 Sep 04:43:43 04:52:27 71° 293° (WNW) 05:01:16
M-CUBED/EXP-1 PRIME 05 Sep 04:44:53 04:46:46 13° 343° (NNW) 04:48:32 437.505
Gurwin Techsat 1B 05 Sep 04:47:15 04:52:38 90° 295° (WNW) 04:57:59 435.225
AO-7 05 Sep 04:47:23 04:54:40 33° 89° (E) 05:02:00 29.400- 29.500
KKS-1 05 Sep 04:50:19 04:53:59 24° 271° (W) 04:57:38 437.445
O/OREOS (USA 219) 05 Sep 05:01:04 05:05:05 29° 248° (WSW) 05:09:03 437.305
Oscar 19 05 Sep 05:07:23 05:12:12 38° 307° (NW) 05:16:57 437.125/150
JAS-2 05 Sep 05:08:27 05:15:48 78° 106° (ESE) 05:22:16 435.910
SO-50 05 Sep 05:20:24 05:25:23 69° 358° (N) 05:30:23 436.795
MOZHAYETS 4 05 Sep 05:36:31 05:40:52 40° 263° (W) 05:45:14
DANDE 05 Sep 05:39:07 05:42:53 16° 353° (N) 05:47:09 436.750
HORYU 2 05 Sep 05:41:19 05:45:41 48° 100° (E) 05:50:01 437.375
